Location: Austin
(30.3000°N, 97.7500°W)
Time: 11:27:39
(UTC-05:00)

Cosmos 1842 Rocket - Pass Details

Date: 26 May 2023
Orbit: 605 x 631 km, 82.5° (Epoch: 30 May)

Event Time Altitude Azimuth Distance (km) Brightness Sun altitude
Rises 21:14:00 0° 193° (SSW) 2,870 6.8 -10.1°
Reaches altitude 10° 21:16:14 10° 197° (SSW) 1,973 6.0 -10.5°
Maximum altitude 21:20:33 60° 277° (W) 713 4.2 -11.3°
Drops below altitude 10° 21:24:56 10° 358° (N) 2,000 6.7 -12.1°
Sets 21:27:12 0° 2° (N) 2,914 7.5 -12.5°
